owner,sensor,date,latitude,longitude,vertical_datum,wind_speed,wind_to_direction,wind_speed_of_gust,qcFlag 
TABS,ioos:station:wmo:42045:1,2010-01-01T00:00:00Z,26.2168,-96.4998,4.0,4.939028245,349.7364707,6.25,'11111222,11111222,11111222' 
TABS,ioos:station:wmo:42045:1,2010-01-01T00:30:00Z,26.2168,-96.4998,4.0,4.18646629,353.5538176,5.41,'11111222,11111222,11111222' 
TABS,ioos:station:wmo:42045:1,2010-01-01T01:00:00Z,26.2168,-96.4998,4.0,4.046245173,339.9078488,4.87,'11111222,11111222,11111222' 
TABS,ioos:station:wmo:42045:1,2010-01-01T01:30:00Z,26.2168,-96.4998,4.0,3.595608433,333.5773267,4.71,'11111222,11111222,11111222' 
TABS,ioos:station:wmo:42045:1,2010-01-01T02:00:00Z,26.2168,-96.4998,4.0,5.981178814,331.9780823,7.08,'11111222,11111222,11111222' 
TABS,ioos:station:wmo:42045:1,2010-01-01T02:30:00Z,26.2168,-96.4998,4.0,7.219175853,348.3318877,8.58,'11111222,11111222,11111222' 
TABS,ioos:station:wmo:42045:1,2010-01-01T03:00:00Z,26.2168,-96.4998,4.0,5.775370118,350.733204,7.08,'11111222,11111222,11111222' 
TABS,ioos:station:wmo:42045:1,2010-01-01T03:30:00Z,26.2168,-96.4998,4.0,9.055705384,326.7134082,10.53,'11111222,11111222,11111222' 
TABS,ioos:station:wmo:42045:1,2010-01-01T04:00:00Z,26.2168,-96.4998,4.0,9.069867695,339.9465674,10.8,'11111222,11111222,11111222' 
TABS,ioos:station:wmo:42045:1,2010-01-01T04:30:00Z,26.2168,-96.4998,4.0,7.990306627,344.2415744,9.16,'11111222,11111222,11111222' 
TABS,ioos:station:wmo:42045:1,2010-01-01T05:00:00Z,26.2168,-96.4998,4.0,8.230735083,342.97387,9.69,'11111222,11111222,11111222' 
TABS,ioos:station:wmo:42045:1,2010-01-01T05:30:00Z,26.2168,-96.4998,4.0,13.97714205,351.4001278,19.84,'11111222,11111222,11111222' 
TABS,ioos:station:wmo:42045:1,2010-01-01T06:00:00Z,26.2168,-96.4998,4.0,14.55732462,2.795361856,17.82,'11111222,11111222,11111222' 
TABS,ioos:station:wmo:42045:1,2010-01-01T06:30:00Z,26.2168,-96.4998,4.0,13.57230268,358.9443517,17.81,'11111222,11111222,11111222' 
TABS,ioos:station:wmo:42045:1,2010-01-01T07:00:00Z,26.2168,-96.4998,4.0,14.32760273,2.840221183,17.2,'11111222,11111222,11111222' 
TABS,ioos:station:wmo:42045:1,2010-01-01T07:30:00Z,26.2168,-96.4998,4.0,14.34652571,5.519622978,17.37,'11111222,11111222,11111222' 
TABS,ioos:station:wmo:42045:1,2010-01-01T08:00:00Z,26.2168,-96.4998,4.0,14.0654648,4.60780852,17.71,'11111222,11111222,11111222' 
TABS,ioos:station:wmo:42045:1,2010-01-01T08:30:00Z,26.2168,-96.4998,4.0,13.68691346,8.402199795,16.25,'11111222,11111222,11111222' 
TABS,ioos:station:wmo:42045:1,2010-01-01T09:00:00Z,26.2168,-96.4998,4.0,12.76915424,8.466193001,16.6,'11111222,11111222,11111222' 
TABS,ioos:station:wmo:42045:1,2010-01-01T09:30:00Z,26.2168,-96.4998,4.0,12.9620986,10.13065382,16.29,'11111222,11111222,11111222' 
TABS,ioos:station:wmo:42045:1,2010-01-01T10:00:00Z,26.2168,-96.4998,4.0,12.66567803,2.85089295,15.43,'11111222,11111222,11111222' 
TABS,ioos:station:wmo:42045:1,2010-01-01T10:30:00Z,26.2168,-96.4998,4.0,12.13164869,359.0551819,14.91,'11111222,11144222,11111222' 
TABS,ioos:station:wmo:42045:1,2010-01-01T11:00:00Z,26.2168,-96.4998,4.0,13.09085941,359.3432601,16.3,'11111222,11144222,11111222' 
TABS,ioos:station:wmo:42045:1,2010-01-01T11:30:00Z,26.2168,-96.4998,4.0,13.03239809,358.9006219,16.66,'11111222,11111222,11111222' 
TABS,ioos:station:wmo:42045:1,2010-01-01T12:00:00Z,26.2168,-96.4998,4.0,13.48992216,10.59332907,17.62,'11111222,11111222,11111222' 
TABS,ioos:station:wmo:42045:1,2010-01-01T12:30:00Z,26.2168,-96.4998,4.0,12.84854077,3.078195353,16.19,'11111222,11111222,11111222' 
TABS,ioos:station:wmo:42045:1,2010-01-01T13:00:00Z,26.2168,-96.4998,4.0,12.03496572,357.1421458,16.33,'11111222,11111222,11111222' 
TABS,ioos:station:wmo:42045:1,2010-01-01T13:30:00Z,26.2168,-96.4998,4.0,11.79593574,5.057882589,14.32,'11111222,11111222,11111222' 
TABS,ioos:station:wmo:42045:1,2010-01-01T14:00:00Z,26.2168,-96.4998,4.0,12.15619184,12.01222071,15.61,'11111222,11111222,11111222' 
TABS,ioos:station:wmo:42045:1,2010-01-01T14:30:00Z,26.2168,-96.4998,4.0,12.26351092,7.44930848,15.32,'11111222,11111222,11111222' 
TABS,ioos:station:wmo:42045:1,2010-01-01T15:00:00Z,26.2168,-96.4998,4.0,11.60038361,354.6578076,16.26,'11111222,11111222,11111222' 
TABS,ioos:station:wmo:42045:1,2010-01-01T15:30:00Z,26.2168,-96.4998,4.0,10.58515942,7.272492698,13.96,'11111222,11111222,11111222' 
TABS,ioos:station:wmo:42045:1,2010-01-01T16:00:00Z,26.2168,-96.4998,4.0,10.65084034,10.27574276,13.82,'11111222,11111222,11111222' 
TABS,ioos:station:wmo:42045:1,2010-01-01T16:30:00Z,26.2168,-96.4998,4.0,10.57779278,7.386810171,13.82,'11111222,11111222,11111222' 
TABS,ioos:station:wmo:42045:1,2010-01-01T17:00:00Z,26.2168,-96.4998,4.0,10.56115997,11.74592139,13.68,'11111222,11111222,11111222' 
TABS,ioos:station:wmo:42045:1,2010-01-01T17:30:00Z,26.2168,-96.4998,4.0,10.11140445,13.78862307,13.62,'11111222,11111222,11111222' 
TABS,ioos:station:wmo:42045:1,2010-01-01T18:00:00Z,26.2168,-96.4998,4.0,10.09167974,5.800758752,12.61,'11111222,11111222,11111222' 
TABS,ioos:station:wmo:42045:1,2010-01-01T18:30:00Z,26.2168,-96.4998,4.0,8.376264084,9.135974651,12.0,'11111222,11111222,11111222' 
TABS,ioos:station:wmo:42045:1,2010-01-01T19:00:00Z,26.2168,-96.4998,4.0,7.210443814,359.3640803,10.19,'11111222,11144222,11111222' 
TABS,ioos:station:wmo:42045:1,2010-01-01T19:30:00Z,26.2168,-96.4998,4.0,6.512733681,13.22516623,8.85,'11111222,11111222,11111222' 
TABS,ioos:station:wmo:42045:1,2010-01-01T20:00:00Z,26.2168,-96.4998,4.0,6.816920126,355.9620884,9.67,'11111222,11111222,11111222' 
TABS,ioos:station:wmo:42045:1,2010-01-01T20:30:00Z,26.2168,-96.4998,4.0,6.17324064,358.1432064,10.58,'11111222,11111222,11111222' 
TABS,ioos:station:wmo:42045:1,2010-01-01T21:00:00Z,26.2168,-96.4998,4.0,7.146726523,351.0646947,9.48,'11111222,11111222,11111222' 
TABS,ioos:station:wmo:42045:1,2010-01-01T21:30:00Z,26.2168,-96.4998,4.0,7.530106241,344.0439793,10.27,'11111222,11111222,11111222' 
TABS,ioos:station:wmo:42045:1,2010-01-01T22:00:00Z,26.2168,-96.4998,4.0,8.137966576,357.4643692,10.93,'11111222,11111222,11111222' 
TABS,ioos:station:wmo:42045:1,2010-01-01T22:30:00Z,26.2168,-96.4998,4.0,7.949138318,4.907077908,10.46,'11111222,11111222,11111222' 
TABS,ioos:station:wmo:42045:1,2010-01-01T23:00:00Z,26.2168,-96.4998,4.0,7.154802583,14.07484469,9.7,'11111222,11111222,11111222' 
TABS,ioos:station:wmo:42045:1,2010-01-01T23:30:00Z,26.2168,-96.4998,4.0,7.357295699,8.83474338,9.37,'11111222,11111222,11111222' 
TABS,ioos:station:wmo:42045:1,2010-01-02T00:00:00Z,26.2168,-96.4998,4.0,6.936894118,8.538703375,9.2,'11111222,11111222,11111222' 
TABS,ioos:station:wmo:42045:1,2010-01-02T00:30:00Z,26.2168,-96.4998,4.0,6.095309672,11.16221675,8.19,'11111222,11111222,11111222' 
TABS,ioos:station:wmo:42045:1,2010-01-02T01:00:00Z,26.2168,-96.4998,4.0,6.890725651,18.09287123,10.09,'11111222,11111222,11111222' 
TABS,ioos:station:wmo:42045:1,2010-01-02T01:30:00Z,26.2168,-96.4998,4.0,6.381606381,31.34841578,9.45,'11111222,11111222,11111222' 
TABS,ioos:station:wmo:42045:1,2010-01-02T02:00:00Z,26.2168,-96.4998,4.0,5.837233934,42.98648448,8.5,'11111222,11111222,11111222' 
TABS,ioos:station:wmo:42045:1,2010-01-02T02:30:00Z,26.2168,-96.4998,4.0,4.45558077,46.09089799,6.86,'11111222,11111222,11111222' 
TABS,ioos:station:wmo:42045:1,2010-01-02T03:00:00Z,26.2168,-96.4998,4.0,6.424865757,32.47774554,8.51,'11111222,11111222,11111222' 
TABS,ioos:station:wmo:42045:1,2010-01-02T03:30:00Z,26.2168,-96.4998,4.0,6.312503465,33.56390932,9.21,'11111222,11111222,11111222' 
TABS,ioos:station:wmo:42045:1,2010-01-02T04:00:00Z,26.2168,-96.4998,4.0,6.261629181,41.63323152,8.43,'11111222,11111222,11111222' 
TABS,ioos:station:wmo:42045:1,2010-01-02T04:30:00Z,26.2168,-96.4998,4.0,6.825195968,46.24633579,9.05,'11111222,11111222,11111222' 
TABS,ioos:station:wmo:42045:1,2010-01-02T05:00:00Z,26.2168,-96.4998,4.0,6.344525199,60.64681354,8.54,'11111222,11111222,11111222' 
TABS,ioos:station:wmo:42045:1,2010-01-02T05:30:00Z,26.2168,-96.4998,4.0,7.13349844,56.08682457,9.57,'11111222,11111222,11111222' 
TABS,ioos:station:wmo:42045:1,2010-01-02T06:00:00Z,26.2168,-96.4998,4.0,5.069960552,56.34093369,8.02,'11111222,11111222,11111222' 
TABS,ioos:station:wmo:42045:1,2010-01-02T06:30:00Z,26.2168,-96.4998,4.0,4.234158712,78.55698305,7.04,'11111222,11111222,11111222' 
TABS,ioos:station:wmo:42045:1,2010-01-02T07:00:00Z,26.2168,-96.4998,4.0,4.644588249,76.17280328,6.34,'11111222,11111222,11111222' 
TABS,ioos:station:wmo:42045:1,2010-01-02T07:30:00Z,26.2168,-96.4998,4.0,4.450820149,84.4555187,6.1,'11111222,11111222,11111222' 
TABS,ioos:station:wmo:42045:1,2010-01-02T08:00:00Z,26.2168,-96.4998,4.0,3.711940193,88.14699653,5.2,'11111222,11111222,11111222' 
TABS,ioos:station:wmo:42045:1,2010-01-02T08:30:00Z,26.2168,-96.4998,4.0,4.022437072,91.99498555,6.46,'11111222,11111222,11111222' 
TABS,ioos:station:wmo:42045:1,2010-01-02T09:00:00Z,26.2168,-96.4998,4.0,3.945339022,62.20052096,6.1,'11111222,11111222,11111222' 
TABS,ioos:station:wmo:42045:1,2010-01-02T09:30:00Z,26.2168,-96.4998,4.0,4.418438638,55.69817226,6.47,'11111222,11111222,11111222' 
TABS,ioos:station:wmo:42045:1,2010-01-02T10:00:00Z,26.2168,-96.4998,4.0,4.50388721,67.13512443,6.63,'11111222,11111222,11111222' 
TABS,ioos:station:wmo:42045:1,2010-01-02T10:30:00Z,26.2168,-96.4998,4.0,4.962438917,52.36771815,6.24,'11111222,11111222,11111222' 
TABS,ioos:station:wmo:42045:1,2010-01-02T11:00:00Z,26.2168,-96.4998,4.0,4.049357974,56.58429338,6.08,'11111222,11111222,11111222' 
TABS,ioos:station:wmo:42045:1,2010-01-02T11:30:00Z,26.2168,-96.4998,4.0,4.146637192,77.60568423,7.07,'11111222,11111222,11111222' 
TABS,ioos:station:wmo:42045:1,2010-01-02T12:00:00Z,26.2168,-96.4998,4.0,4.587428474,65.66938366,7.41,'11111222,11111222,11111222' 
TABS,ioos:station:wmo:42045:1,2010-01-02T12:30:00Z,26.2168,-96.4998,4.0,5.457123785,59.25196802,7.12,'11111222,11111222,11111222' 
TABS,ioos:station:wmo:42045:1,2010-01-02T13:00:00Z,26.2168,-96.4998,4.0,3.963495932,75.08682047,6.16,'11111222,11111222,11111222' 
TABS,ioos:station:wmo:42045:1,2010-01-02T13:30:00Z,26.2168,-96.4998,4.0,3.820117799,89.54962253,6.68,'11111222,11111222,11111222' 
TABS,ioos:station:wmo:42045:1,2010-01-02T14:00:00Z,26.2168,-96.4998,4.0,5.400083333,90.31872678,6.8,'11111222,11111222,11111222' 
TABS,ioos:station:wmo:42045:1,2010-01-02T14:30:00Z,26.2168,-96.4998,4.0,5.051940221,91.58840832,6.89,'11111222,11111222,11111222' 
TABS,ioos:station:wmo:42045:1,2010-01-02T15:00:00Z,26.2168,-96.4998,4.0,6.04020695,80.08503643,8.29,'11111222,11111222,11111222' 
TABS,ioos:station:wmo:42045:1,2010-01-02T15:30:00Z,26.2168,-96.4998,4.0,6.033274401,86.19814727,8.14,'11111222,11111222,11111222' 
TABS,ioos:station:wmo:42045:1,2010-01-02T16:00:00Z,26.2168,-96.4998,4.0,5.341834891,88.49779007,7.55,'11111222,11111222,11111222' 
TABS,ioos:station:wmo:42045:1,2010-01-02T16:30:00Z,26.2168,-96.4998,4.0,5.51757193,85.42566852,7.79,'11111222,11111222,11111222' 
TABS,ioos:station:wmo:42045:1,2010-01-02T17:00:00Z,26.2168,-96.4998,4.0,5.179285665,86.56816527,8.28,'11111222,11111222,11111222' 
TABS,ioos:station:wmo:42045:1,2010-01-02T17:30:00Z,26.2168,-96.4998,4.0,5.188679986,86.68500101,7.37,'11111222,11111222,11111222' 
TABS,ioos:station:wmo:42045:1,2010-01-02T18:00:00Z,26.2168,-96.4998,4.0,5.650566343,89.18836751,8.11,'11111222,11111222,11111222' 
TABS,ioos:station:wmo:42045:1,2010-01-02T18:30:00Z,26.2168,-96.4998,4.0,4.898591634,86.60565296,7.55,'11111222,11111222,11111222' 
TABS,ioos:station:wmo:42045:1,2010-01-02T19:00:00Z,26.2168,-96.4998,4.0,4.795768969,105.1088073,6.96,'11111222,11111222,11111222' 
TABS,ioos:station:wmo:42045:1,2010-01-02T19:30:00Z,26.2168,-96.4998,4.0,5.082066509,93.94947632,6.62,'11111222,11111222,11111222' 
TABS,ioos:station:wmo:42045:1,2010-01-02T20:00:00Z,26.2168,-96.4998,4.0,5.520905723,94.98813077,7.96,'11111222,11111222,11111222' 
TABS,ioos:station:wmo:42045:1,2010-01-02T20:30:00Z,26.2168,-96.4998,4.0,5.06874738,79.88685362,7.37,'11111222,11111222,11111222' 
TABS,ioos:station:wmo:42045:1,2010-01-02T21:00:00Z,26.2168,-96.4998,4.0,5.271147883,88.80382843,6.82,'11111222,11111222,11111222' 
TABS,ioos:station:wmo:42045:1,2010-01-02T21:30:00Z,26.2168,-96.4998,4.0,5.042191984,78.44453566,6.79,'11111222,11111222,11111222' 
TABS,ioos:station:wmo:42045:1,2010-01-02T22:00:00Z,26.2168,-96.4998,4.0,4.861481256,77.16399961,6.67,'11111222,11111222,11111222' 
TABS,ioos:station:wmo:42045:1,2010-01-02T22:30:00Z,26.2168,-96.4998,4.0,4.659881973,95.29502425,6.48,'11111222,11111222,11111222' 
TABS,ioos:station:wmo:42045:1,2010-01-02T23:00:00Z,26.2168,-96.4998,4.0,4.614108798,96.97140042,6.35,'11111222,11111222,11111222' 
TABS,ioos:station:wmo:42045:1,2010-01-02T23:30:00Z,26.2168,-96.4998,4.0,4.906577218,110.0233871,6.61,'11111222,11111222,11111222' 
TABS,ioos:station:wmo:42045:1,2010-01-03T00:00:00Z,26.2168,-96.4998,4.0,5.110234828,97.19495412,7.24,'11111222,11111222,11111222' 
TABS,ioos:station:wmo:42045:1,2010-01-03T00:30:00Z,26.2168,-96.4998,4.0,4.983422519,101.6936451,7.33,'11111222,11111222,11111222' 
TABS,ioos:station:wmo:42045:1,2010-01-03T01:00:00Z,26.2168,-96.4998,4.0,5.466159529,94.40715522,7.43,'11111222,11111222,11111222' 
TABS,ioos:station:wmo:42045:1,2010-01-03T01:30:00Z,26.2168,-96.4998,4.0,5.523187486,102.1241308,7.77,'11111222,11111222,11111222' 
TABS,ioos:station:wmo:42045:1,2010-01-03T02:00:00Z,26.2168,-96.4998,4.0,6.443919615,102.5484875,8.49,'11111222,11111222,11111222' 
TABS,ioos:station:wmo:42045:1,2010-01-03T02:30:00Z,26.2168,-96.4998,4.0,6.180258894,94.64086833,8.12,'11111222,11111222,11111222' 
TABS,ioos:station:wmo:42045:1,2010-01-03T03:00:00Z,26.2168,-96.4998,4.0,5.291370333,117.5823856,6.91,'11111222,11111222,11111222' 
TABS,ioos:station:wmo:42045:1,2010-01-03T03:30:00Z,26.2168,-96.4998,4.0,5.623922119,129.0101772,7.65,'11111222,11111222,11111222' 
TABS,ioos:station:wmo:42045:1,2010-01-03T04:00:00Z,26.2168,-96.4998,4.0,5.7302705,124.1895846,7.48,'11111222,11111222,11111222' 
TABS,ioos:station:wmo:42045:1,2010-01-03T04:30:00Z,26.2168,-96.4998,4.0,6.544020171,130.0413131,8.92,'11111222,11111222,11111222' 
TABS,ioos:station:wmo:42045:1,2010-01-03T05:00:00Z,26.2168,-96.4998,4.0,6.223857325,130.9610867,7.84,'11111222,11111222,11111222' 
TABS,ioos:station:wmo:42045:1,2010-01-03T05:30:00Z,26.2168,-96.4998,4.0,6.275388434,136.8728998,7.82,'11111222,11111222,11111222' 
TABS,ioos:station:wmo:42045:1,2010-01-03T06:00:00Z,26.2168,-96.4998,4.0,5.491812087,132.6389466,7.13,'11111222,11111222,11111222' 
TABS,ioos:station:wmo:42045:1,2010-01-03T06:30:00Z,26.2168,-96.4998,4.0,5.202710832,142.1832678,7.0,'11111222,11111222,11111222' 
TABS,ioos:station:wmo:42045:1,2010-01-03T07:00:00Z,26.2168,-96.4998,4.0,4.985067703,139.3117459,6.38,'11111222,11111222,11111222' 
TABS,ioos:station:wmo:42045:1,2010-01-03T07:30:00Z,26.2168,-96.4998,4.0,5.341132839,136.7452063,6.81,'11111222,11111222,11111222' 
TABS,ioos:station:wmo:42045:1,2010-01-03T08:00:00Z,26.2168,-96.4998,4.0,5.388821764,135.9025347,7.03,'11111222,11111222,11111222' 
TABS,ioos:station:wmo:42045:1,2010-01-03T08:30:00Z,26.2168,-96.4998,4.0,6.246951256,141.3691404,7.9,'11111222,11111222,11111222' 
TABS,ioos:station:wmo:42045:1,2010-01-03T09:00:00Z,26.2168,-96.4998,4.0,5.594747537,148.2988549,7.45,'11111222,11111222,11111222' 
TABS,ioos:station:wmo:42045:1,2010-01-03T09:30:00Z,26.2168,-96.4998,4.0,6.192156329,143.5375318,8.52,'11111222,11111222,11111222' 
TABS,ioos:station:wmo:42045:1,2010-01-03T10:00:00Z,26.2168,-96.4998,4.0,6.299714279,130.3648631,8.28,'11111222,11111222,11111222' 
TABS,ioos:station:wmo:42045:1,2010-01-03T10:30:00Z,26.2168,-96.4998,4.0,5.872180174,127.3190651,7.69,'11111222,11111222,11111222' 
TABS,ioos:station:wmo:42045:1,2010-01-03T11:00:00Z,26.2168,-96.4998,4.0,5.008193287,127.3736156,6.41,'11111222,11111222,11111222' 
TABS,ioos:station:wmo:42045:1,2010-01-03T11:30:00Z,26.2168,-96.4998,4.0,5.647937677,122.5649033,7.36,'11111222,11111222,11111222' 
TABS,ioos:station:wmo:42045:1,2010-01-03T12:00:00Z,26.2168,-96.4998,4.0,5.057993673,136.6826412,6.61,'11111222,11111222,11111222' 
TABS,ioos:station:wmo:42045:1,2010-01-03T12:30:00Z,26.2168,-96.4998,4.0,4.356386117,110.1407933,5.67,'11111222,11111222,11111222' 
TABS,ioos:station:wmo:42045:1,2010-01-03T13:00:00Z,26.2168,-96.4998,4.0,3.495840385,130.7082832,5.01,'11111222,11111222,11111222' 
TABS,ioos:station:wmo:42045:1,2010-01-03T13:30:00Z,26.2168,-96.4998,4.0,4.278983524,133.769359,5.74,'11111222,11111222,11111222' 
TABS,ioos:station:wmo:42045:1,2010-01-03T14:00:00Z,26.2168,-96.4998,4.0,3.775248336,131.6716735,5.52,'11111222,11111222,11111222' 
TABS,ioos:station:wmo:42045:1,2010-01-03T14:30:00Z,26.2168,-96.4998,4.0,3.937321425,125.3857689,5.34,'11111222,11111222,11111222' 
TABS,ioos:station:wmo:42045:1,2010-01-03T15:00:00Z,26.2168,-96.4998,4.0,7.760734501,77.27060706,10.06,'11111222,11111222,11111222' 
TABS,ioos:station:wmo:42045:1,2010-01-03T15:30:00Z,26.2168,-96.4998,4.0,8.83002265,90.13019566,10.42,'11111222,11111222,11111222' 
TABS,ioos:station:wmo:42045:1,2010-01-03T16:00:00Z,26.2168,-96.4998,4.0,8.235150272,97.74676791,9.98,'11111222,11111222,11111222' 
TABS,ioos:station:wmo:42045:1,2010-01-03T16:30:00Z,26.2168,-96.4998,4.0,7.499473315,96.58526926,9.05,'11111222,11111222,11111222' 
TABS,ioos:station:wmo:42045:1,2010-01-03T17:00:00Z,26.2168,-96.4998,4.0,6.423745014,93.7492231,7.81,'11111222,11111222,11111222' 
TABS,ioos:station:wmo:42045:1,2010-01-03T17:30:00Z,26.2168,-96.4998,4.0,6.110662812,90.84432193,7.41,'11111222,11111222,11111222' 
TABS,ioos:station:wmo:42045:1,2010-01-03T18:00:00Z,26.2168,-96.4998,4.0,5.963354761,91.92237238,6.91,'11111222,11111222,11111222' 
TABS,ioos:station:wmo:42045:1,2010-01-03T18:30:00Z,26.2168,-96.4998,4.0,6.523197069,77.15641136,8.14,'11111222,11111222,11111222' 
TABS,ioos:station:wmo:42045:1,2010-01-03T19:00:00Z,26.2168,-96.4998,4.0,5.154046954,80.95762229,6.51,'11111222,11111222,11111222' 
TABS,ioos:station:wmo:42045:1,2010-01-03T19:30:00Z,26.2168,-96.4998,4.0,5.078710466,76.10017726,6.61,'11111222,11111222,11111222' 
TABS,ioos:station:wmo:42045:1,2010-01-03T20:00:00Z,26.2168,-96.4998,4.0,4.667868893,70.86598062,6.22,'11111222,11111222,11111222' 
TABS,ioos:station:wmo:42045:1,2010-01-03T20:30:00Z,26.2168,-96.4998,4.0,4.119381021,57.38978428,5.51,'11111222,11111222,11111222' 
TABS,ioos:station:wmo:42045:1,2010-01-03T21:00:00Z,26.2168,-96.4998,4.0,4.228096498,66.58751966,5.0,'11111222,11111222,11111222' 
TABS,ioos:station:wmo:42045:1,2010-01-03T21:30:00Z,26.2168,-96.4998,4.0,3.934056431,71.0119994,5.1,'11111222,11111222,11111222' 
TABS,ioos:station:wmo:42045:1,2010-01-03T22:00:00Z,26.2168,-96.4998,4.0,2.334823334,86.31610131,3.51,'11111222,11111222,11111222' 
TABS,ioos:station:wmo:42045:1,2010-01-03T22:30:00Z,26.2168,-96.4998,4.0,4.302057647,32.95099724,5.55,'11111222,11111222,11111222' 
TABS,ioos:station:wmo:42045:1,2010-01-03T23:00:00Z,26.2168,-96.4998,4.0,6.127723884,47.11588161,7.62,'11111222,11111222,11111222' 
TABS,ioos:station:wmo:42045:1,2010-01-03T23:30:00Z,26.2168,-96.4998,4.0,3.176948221,40.65967373,4.42,'11111222,11111222,11111222' 
TABS,ioos:station:wmo:42045:1,2010-01-04T00:00:00Z,26.2168,-96.4998,4.0,2.035779949,56.6218251,2.93,'11111222,11111222,11111222' 
TABS,ioos:station:wmo:42045:1,2010-01-04T00:30:00Z,26.2168,-96.4998,4.0,1.992009036,52.95719093,3.35,'11111222,11111222,11111222' 
TABS,ioos:station:wmo:42045:1,2010-01-04T01:00:00Z,26.2168,-96.4998,4.0,4.603520392,357.7589293,5.72,'11111222,11111222,11111222' 
TABS,ioos:station:wmo:42045:1,2010-01-04T01:30:00Z,26.2168,-96.4998,4.0,4.64556778,355.3078553,5.5,'11111222,11111222,11111222' 
TABS,ioos:station:wmo:42045:1,2010-01-04T02:00:00Z,26.2168,-96.4998,4.0,10.99831351,54.73450153,13.38,'11111222,11111222,11111222' 
TABS,ioos:station:wmo:42045:1,2010-01-04T02:30:00Z,26.2168,-96.4998,4.0,11.66331857,60.68738603,13.7,'11111222,11111222,11111222' 
TABS,ioos:station:wmo:42045:1,2010-01-04T03:00:00Z,26.2168,-96.4998,4.0,10.76819391,55.36508,12.99,'11111222,11111222,11111222' 
TABS,ioos:station:wmo:42045:1,2010-01-04T03:30:00Z,26.2168,-96.4998,4.0,11.42394415,57.5476959,14.16,'11111222,11111222,11111222' 
TABS,ioos:station:wmo:42045:1,2010-01-04T04:00:00Z,26.2168,-96.4998,4.0,10.55390923,56.98716822,12.47,'11111222,11111222,11111222' 
TABS,ioos:station:wmo:42045:1,2010-01-04T04:30:00Z,26.2168,-96.4998,4.0,11.88327396,51.42269099,14.56,'11111222,11111222,11111222' 
TABS,ioos:station:wmo:42045:1,2010-01-04T05:00:00Z,26.2168,-96.4998,4.0,12.11261326,46.94003299,14.46,'11111222,11111222,11111222' 
TABS,ioos:station:wmo:42045:1,2010-01-04T05:30:00Z,26.2168,-96.4998,4.0,11.38470904,58.431715,13.39,'11111222,11111222,11111222' 
TABS,ioos:station:wmo:42045:1,2010-01-04T06:00:00Z,26.2168,-96.4998,4.0,10.07821909,55.14270579,12.81,'11111222,11111222,11111222' 
TABS,ioos:station:wmo:42045:1,2010-01-04T06:30:00Z,26.2168,-96.4998,4.0,10.83664616,61.02207386,13.43,'11111222,11111222,11111222' 
TABS,ioos:station:wmo:42045:1,2010-01-04T07:00:00Z,26.2168,-96.4998,4.0,10.12081024,54.89633314,13.4,'11111222,11111222,11111222' 
TABS,ioos:station:wmo:42045:1,2010-01-04T07:30:00Z,26.2168,-96.4998,4.0,10.22123769,48.37079226,11.99,'11111222,11111222,11111222' 
TABS,ioos:station:wmo:42045:1,2010-01-04T08:00:00Z,26.2168,-96.4998,4.0,10.08549949,42.54852508,12.88,'11111222,11111222,11111222' 
TABS,ioos:station:wmo:42045:1,2010-01-04T08:30:00Z,26.2168,-96.4998,4.0,9.994598541,39.96674601,12.19,'11111222,11111222,11111222' 
TABS,ioos:station:wmo:42045:1,2010-01-04T09:00:00Z,26.2168,-96.4998,4.0,10.96316104,41.19053479,13.62,'11111222,11111222,11111222' 
TABS,ioos:station:wmo:42045:1,2010-01-04T09:30:00Z,26.2168,-96.4998,4.0,10.49779501,33.93197772,13.13,'11111222,11111222,11111222' 
TABS,ioos:station:wmo:42045:1,2010-01-04T10:00:00Z,26.2168,-96.4998,4.0,10.94208847,36.63920481,13.79,'11111222,11111222,11111222' 
TABS,ioos:station:wmo:42045:1,2010-01-04T10:30:00Z,26.2168,-96.4998,4.0,10.74045157,39.14272226,14.32,'11111222,11111222,11111222' 
TABS,ioos:station:wmo:42045:1,2010-01-04T11:00:00Z,26.2168,-96.4998,4.0,10.88441546,35.23753792,13.88,'11111222,11111222,11111222' 
TABS,ioos:station:wmo:42045:1,2010-01-04T11:30:00Z,26.2168,-96.4998,4.0,10.5346381,29.26563083,13.75,'11111222,11111222,11111222' 
TABS,ioos:station:wmo:42045:1,2010-01-04T12:00:00Z,26.2168,-96.4998,4.0,10.98306424,33.67530969,13.75,'11111222,11111222,11111222' 
TABS,ioos:station:wmo:42045:1,2010-01-04T12:30:00Z,26.2168,-96.4998,4.0,10.40200461,34.62170526,13.46,'11111222,11111222,11111222' 
TABS,ioos:station:wmo:42045:1,2010-01-04T13:00:00Z,26.2168,-96.4998,4.0,10.76884859,34.82609623,13.6,'11111222,11111222,11111222' 
TABS,ioos:station:wmo:42045:1,2010-01-04T13:30:00Z,26.2168,-96.4998,4.0,10.03438588,31.01243592,12.38,'11111222,11111222,11111222' 
TABS,ioos:station:wmo:42045:1,2010-01-04T14:00:00Z,26.2168,-96.4998,4.0,11.07248843,20.07126847,13.48,'11111222,11111222,11111222' 
TABS,ioos:station:wmo:42045:1,2010-01-04T14:30:00Z,26.2168,-96.4998,4.0,10.86235702,19.80258991,13.81,'11111222,11111222,11111222' 
TABS,ioos:station:wmo:42045:1,2010-01-04T15:00:00Z,26.2168,-96.4998,4.0,10.54442981,23.76912282,12.89,'11111222,11111222,11111222' 
TABS,ioos:station:wmo:42045:1,2010-01-04T15:30:00Z,26.2168,-96.4998,4.0,9.077114079,17.43661425,12.17,'11111222,11111222,11111222' 
TABS,ioos:station:wmo:42045:1,2010-01-04T16:00:00Z,26.2168,-96.4998,4.0,9.047076876,21.80114805,12.06,'11111222,11111222,11111222' 
TABS,ioos:station:wmo:42045:1,2010-01-04T16:30:00Z,26.2168,-96.4998,4.0,9.520094537,14.66367259,12.46,'11111222,11111222,11111222' 
TABS,ioos:station:wmo:42045:1,2010-01-04T17:00:00Z,26.2168,-96.4998,4.0,9.895882982,19.29525545,12.56,'11111222,11111222,11111222' 
TABS,ioos:station:wmo:42045:1,2010-01-04T17:30:00Z,26.2168,-96.4998,4.0,10.67498478,14.81707853,12.99,'11111222,11111222,11111222' 
TABS,ioos:station:wmo:42045:1,2010-01-04T18:00:00Z,26.2168,-96.4998,4.0,10.52912627,15.4219148,12.91,'11111222,11111222,11111222' 
TABS,ioos:station:wmo:42045:1,2010-01-04T18:30:00Z,26.2168,-96.4998,4.0,11.26300138,8.475196551,13.32,'11111222,11111222,11111222' 